Location: St. Louis
(38.6270°N, 90.1994°W)
Time: 22:50:05
(UTC-06:00)

Vanguard 1 - Pass Details

Date: 08 December 2021
Orbit: 652 x 3830 km, 34.2° (Epoch: 21 January)

Event Time Altitude Azimuth Distance (km) Brightness Sun altitude
Rises 00:06:54 0° 254° (WSW) 6,978 - -73.8°
Reaches altitude 10° 00:11:02 10° 253° (WSW) 6,251 - -73.6°
Maximum altitude 00:33:10 77° 172° (S) 3,891 - -71.9°
Exits shadow 00:47:30 31° 94° (E) 4,970 13.5 -70.3°
Drops below altitude 10° 00:54:39 10° 91° (E) 6,096 14.2 -69.3°
Sets 00:58:37 0° 90° (E) 6,808 14.6 -68.8°
